TimeEST,TemperatureF,Dew PointF,Humidity,Sea Level PressureIn,VisibilityMPH,Wind Direction,Wind SpeedMPH,Gust SpeedMPH,PrecipitationIn,Events,Conditions,WindDirDegrees,DateUTC
12:55 AM,29.1,27.7,94,30.19,10.0,NNW,3.5,-,N/A,,Clear,330,2012-11-23 05:55:00
1:55 AM,27.9,26.4,94,30.17,10.0,NNW,1.2,-,N/A,,Clear,330,2012-11-23 06:55:00
2:55 AM,27.1,26.4,97,30.18,10.0,NNW,2.3,-,N/A,,Clear,330,2012-11-23 07:55:00
3:55 AM,27.3,26.4,96,30.17,10.0,NW,2.3,-,N/A,,Clear,320,2012-11-23 08:55:00
4:55 AM,27.1,26.1,96,30.17,10.0,Calm,Calm,-,N/A,,Clear,0,2012-11-23 09:55:00
5:55 AM,26.6,25.7,96,30.18,10.0,Variable,1.2,-,N/A,,Clear,0,2012-11-23 10:55:00
6:55 AM,26.1,25.2,96,30.18,10.0,Calm,Calm,-,N/A,,Clear,0,2012-11-23 11:55:00
7:55 AM,30.4,28.9,94,30.18,10.0,Variable,1.2,-,N/A,,Clear,0,2012-11-23 12:55:00
8:55 AM,38.8,35.6,88,30.17,10.0,Variable,1.2,-,N/A,,Clear,0,2012-11-23 13:55:00
9:55 AM,54.5,31.5,42,30.14,10.0,South,6.9,-,N/A,,Clear,190,2012-11-23 14:55:00
10:55 AM,59.0,29.1,32,30.12,10.0,SSW,9.2,-,N/A,,Clear,210,2012-11-23 15:55:00
11:55 AM,61.5,31.5,32,30.08,10.0,SSW,10.4,-,N/A,,Clear,210,2012-11-23 16:55:00
12:55 PM,63.1,34.7,35,30.04,10.0,SSW,8.1,-,N/A,,Clear,210,2012-11-23 17:55:00
1:55 PM,65.7,36.9,35,30.00,10.0,SW,11.5,17.3,N/A,,Clear,220,2012-11-23 18:55:00
2:55 PM,65.8,37.4,35,29.97,10.0,SSW,11.5,17.3,N/A,,Clear,210,2012-11-23 19:55:00
3:55 PM,64.9,40.3,40,29.96,10.0,WSW,9.2,-,N/A,,Clear,250,2012-11-23 20:55:00
4:55 PM,59.9,41.0,50,29.95,10.0,WSW,5.8,-,N/A,,Partly Cloudy,240,2012-11-23 21:55:00
5:55 PM,52.9,43.0,69,29.95,10.0,SSW,4.6,-,N/A,,Mostly Cloudy,210,2012-11-23 22:55:00
6:55 PM,52.9,43.0,69,29.95,10.0,SW,4.6,-,N/A,,Overcast,220,2012-11-23 23:55:00
7:55 PM,51.6,42.1,70,29.94,10.0,SW,5.8,-,N/A,,Clear,220,2012-11-24 00:55:00
8:55 PM,50.9,44.2,78,29.93,10.0,Variable,2.3,-,N/A,,Mostly Cloudy,0,2012-11-24 01:55:00
9:55 PM,47.3,42.4,83,29.92,10.0,West,4.6,-,N/A,,Scattered Clouds,260,2012-11-24 02:55:00
10:55 PM,44.8,41.9,90,29.92,10.0,Variable,2.3,-,N/A,,Clear,0,2012-11-24 03:55:00
11:55 PM,49.8,40.1,69,29.92,10.0,NW,4.6,-,N/A,,Partly Cloudy,310,2012-11-24 04:55:00